{"data":{"norad_id":67228,"intl_designator":"2025-307A","name":"QPS-SAR-15 (SUKUNAMI-I)","alt_names":[],"object_type":"PAYLOAD","status":"ACTIVE","operator":null,"country":"JPN","launch_date":"2025-12-21","launch_site_code":"RLLB","launch_vehicle":null,"mission":null,"orbit_class":"UNKNOWN","rcs_meters":null,"size_class":null,"mass_kg":null,"dimensions":null,"purposes":[],"wikipedia_slug":null,"has_3d_model":false,"image_url":null,"decayed_at":null,"tle_current":{"epoch":"2026-09-20T21:36:28.486080Z","epoch_age_seconds":71606,"freshness":"FRESH","line1":"1 67228U 25307A   26263.90032970  .00002686  00000+0  22885-3 0  9990","line2":"2 67228  42.0060  62.0158 0012091 261.1848  98.7608 14.99632150 41052","mean_motion":14.9963215,"eccentricity":0.0012091,"inclination_deg":42.006,"raan_deg":62.0158,"arg_perigee_deg":261.1848,"mean_anomaly_deg":98.7608,"bstar":0.00022885,"rev_number":4105,"period_min":96.023548174797,"perigee_km":559.63340057372,"apogee_km":576.43062648223,"semimajor_km":6946.169013528,"source":"CELESTRAK","updated_at":"2026-09-21T09:00:16.507127Z"}}}